DateTimeUTC,F1_A11,F1_S11,BsB_S11,BsG_S11,BsR_S11,BbsB_S11,BbsG_S11,BbsR_S11,BaB_A11,BaG_A11,BaR_A11,Tu_S11,T_S11,Uu_S11,U_S11,P_S11,T1_A11
2021-09-14T19:00:00Z,00000200,20000000,,,,,,,-000.39,-000.37,-000.15,18.9,25.8,01.7,01.1,0656.8,31.1
2021-09-14T19:01:00Z,00000200,20000000,,,,,,,-000.62,-000.10,-000.34,18.9,25.8,01.5,01.0,0656.8,31.1
2021-09-14T19:02:00Z,00000200,20000000,,,,,,,-000.30,-000.07,0000.08,18.9,25.8,01.5,01.0,0656.8,31.1
2021-09-14T19:03:00Z,00000200,60000000,,,,,,,-000.05,0000.02,-000.26,18.9,25.8,01.5,01.0,0656.8,31.1
2021-09-14T19:04:00Z,00000200,41000000,0001.68,0001.20,0000.62,0000.21,0000.33,-000.05,0000.07,-000.21,0000.14,19.1,25.7,01.3,00.9,0657.7,31.1
2021-09-14T19:05:00Z,00000200,01000000,0001.75,0000.50,0000.62,0000.20,0000.50,0000.39,0000.19,0000.26,-000.12,19.1,25.6,01.2,00.8,0657.8,31.1
2021-09-14T19:06:00Z,00000200,01000000,0001.20,0000.93,0000.67,-000.35,0000.02,0000.38,0000.26,-000.44,0000.31,19.1,25.6,01.2,00.8,0657.8,31.1
2021-09-14T19:07:00Z,00000200,01000000,0001.14,0000.94,0000.54,0000.43,0000.41,0000.01,-000.35,0000.24,-000.40,19.1,25.6,01.2,00.8,0657.8,31.1
2021-09-14T19:08:00Z,00000200,01000000,0000.80,0000.83,0000.58,0000.04,0000.40,0000.21,0000.05,-000.13,0000.38,19.1,25.6,01.1,00.7,0657.8,31.1
2021-09-14T19:09:00Z,00000200,01000000,0000.75,0001.19,0000.78,0000.30,0000.06,0000.26,0000.57,0000.54,0000.12,19.1,25.6,01.1,00.7,0657.8,31.1
2021-09-14T19:10:00Z,00000200,01000000,0001.73,0001.04,0000.61,0000.52,0000.10,0000.46,0000.08,0000.04,0000.25,19.0,25.6,01.1,00.7,0657.8,31.1
2021-09-14T19:11:00Z,00000200,01000000,0000.72,0000.84,0000.83,-000.20,-000.17,0000.49,0000.26,0000.28,0000.13,19.1,25.6,01.1,00.7,0657.8,31.1
2021-09-14T19:12:00Z,00000200,01000000,0001.00,0000.82,0000.64,-000.07,0000.26,0000.55,0000.21,0000.02,0000.18,19.1,25.6,01.0,00.7,0657.8,31.1
2021-09-14T19:13:00Z,00000200,01000000,0000.69,0000.57,0000.69,-000.27,0000.26,0000.51,-000.10,0000.20,-000.02,19.2,25.6,01.0,00.7,0657.8,31.1
2021-09-14T19:14:00Z,00000200,01000000,0001.11,0000.97,0000.52,0000.23,0000.16,0000.37,0000.07,0000.10,0000.01,19.2,25.6,00.9,00.6,0657.8,31.1
2021-09-14T19:15:00Z,00000200,01000000,0001.82,0000.86,0000.62,0000.38,0000.26,0000.13,0000.01,0000.07,-000.09,19.2,25.6,00.9,00.6,0657.8,31.1
2021-09-14T19:16:00Z,00000200,01000000,0001.10,0000.43,0000.73,0000.16,0000.15,0000.37,0000.13,0000.05,0000.41,19.2,25.6,00.8,00.5,0657.8,31.1
2021-09-14T19:17:00Z,00000200,01000000,0001.46,0000.86,0001.09,0000.80,0000.21,0000.62,-000.16,0000.20,0000.09,19.1,25.6,00.8,00.6,0657.8,31.1
2021-09-14T19:18:00Z,00000200,01000000,0000.67,0000.71,0000.93,-000.23,0000.10,0000.04,0000.24,-000.14,-000.33,19.1,25.6,00.7,00.5,0657.8,31.1
2021-09-14T19:19:00Z,00000200,01000000,0000.47,0000.71,0000.14,0000.04,-000.00,0000.15,0000.07,0000.03,0000.40,19.1,25.6,00.7,00.5,0657.8,31.1
2021-09-14T19:20:00Z,00000200,01000000,0001.56,0000.59,0000.76,0000.14,0000.19,0000.24,0000.38,0000.46,-000.02,19.1,25.6,00.7,00.5,0657.8,31.1
2021-09-14T19:21:00Z,00000200,01000000,0001.41,0000.72,0000.48,0000.21,0000.44,0000.61,0000.11,0000.11,0000.37,19.1,25.6,00.8,00.5,0657.8,31.1
2021-09-14T19:22:00Z,00000200,01000000,0001.17,0000.80,0000.50,-000.20,-000.09,0000.20,0000.09,0000.07,-000.07,19.1,25.6,00.7,00.4,0657.8,31.1
2021-09-14T19:23:00Z,00000200,01000000,0002.34,0001.09,0000.39,0000.88,0000.28,0000.17,0000.26,0000.38,0000.08,19.0,25.6,00.7,00.5,0657.8,31.1
2021-09-14T19:24:00Z,00000200,01000000,-000.07,0000.50,0000.51,0000.65,0000.15,-000.00,0000.21,0000.28,0000.34,19.0,25.5,00.7,00.5,0657.8,31.1
2021-09-14T19:25:00Z,00000200,01000000,0001.11,0000.80,0000.53,-000.69,0000.05,0000.49,0000.26,-000.35,-000.00,19.0,25.6,00.7,00.5,0657.8,31.1
2021-09-14T19:26:00Z,00000200,01000000,0001.68,0000.77,0000.92,-000.09,0000.23,0000.23,-000.02,0000.36,-000.06,19.0,25.5,00.7,00.5,0657.8,31.1
2021-09-14T19:27:00Z,00000200,01000000,0000.73,0001.04,0000.41,0000.02,0000.18,0000.39,0000.11,0000.06,0000.23,19.0,25.5,00.6,00.4,0657.8,31.1
2021-09-14T19:28:00Z,00000200,01000000,0001.64,0000.88,0000.27,0000.44,0000.24,0000.13,0000.25,0000.11,0000.44,19.0,25.5,00.6,00.4,0657.8,31.1
2021-09-14T19:29:00Z,00000200,01000000,0001.51,0000.82,0000.41,0000.35,0000.02,0000.18,0000.27,0000.25,0000.08,19.0,25.5,00.6,00.4,0657.8,31.1
2021-09-14T19:30:00Z,00000200,01000000,0001.70,0000.87,0000.53,0000.35,-000.05,-000.03,0000.24,0000.10,0000.05,18.9,25.5,00.6,00.4,0657.8,31.1
2021-09-14T19:31:00Z,00000200,01000000,0001.30,0000.75,0000.65,0000.30,0000.13,0000.30,0000.05,0000.07,0000.15,18.9,25.5,00.6,00.4,0657.8,31.1
2021-09-14T19:32:00Z,00000200,01000000,0001.17,0000.90,0000.57,0000.12,0000.09,0000.10,0000.35,0000.36,-000.06,18.9,25.5,00.6,00.4,0657.8,31.1
2021-09-14T19:33:00Z,00000200,01000000,0000.87,0000.34,0000.92,0000.15,0000.04,0000.11,0000.14,0000.09,0000.53,18.9,25.5,00.6,00.4,0657.8,31.1
2021-09-14T19:34:00Z,00000200,01000000,0000.35,0001.00,0000.37,-000.11,0000.07,0000.13,-000.08,0000.47,0000.23,18.9,25.5,00.6,00.4,0657.8,31.1
2021-09-14T19:35:00Z,00000200,01000000,0001.72,0000.99,0000.65,0000.05,0000.25,-000.00,0000.56,-000.40,0000.10,18.9,25.4,00.6,00.4,0657.8,31.1
2021-09-14T19:36:00Z,00000200,01000000,0002.17,0000.93,0000.51,-000.10,-000.12,0000.53,0000.11,0000.96,0000.02,18.9,25.4,00.6,00.4,0657.8,31.1
2021-09-14T19:37:00Z,00000200,01000000,0001.20,0000.88,0000.31,0000.87,0000.09,0000.26,0000.17,0000.09,0000.25,18.9,25.4,00.4,00.3,0657.8,31.1
2021-09-14T19:38:00Z,00000200,01000000,0001.00,0001.20,0000.51,-000.50,-000.04,0000.43,0000.62,0000.17,0000.22,18.8,25.4,00.6,00.4,0657.8,31.1
2021-09-14T19:39:00Z,00000200,01000000,0001.22,0001.09,0000.74,0000.39,-000.13,0000.18,0000.19,0000.23,-000.08,18.8,25.4,00.6,00.4,0657.8,31.1
2021-09-14T19:40:00Z,00000200,01000000,0001.17,0000.95,0000.46,0000.63,0000.00,0000.12,-000.03,0000.52,0000.76,18.8,25.4,00.7,00.5,0657.8,31.1
2021-09-14T19:41:00Z,00000200,01000000,0000.72,0000.94,0000.47,0000.75,0000.32,0000.31,0000.83,0000.46,0000.46,18.9,25.4,00.7,00.5,0657.8,31.1
2021-09-14T19:42:00Z,00000200,01000000,0001.23,0000.84,0000.58,-000.15,0000.36,0000.20,0000.42,0000.15,0000.33,19.0,25.4,00.7,00.5,0657.8,31.1
2021-09-14T19:43:00Z,00000200,01000000,0000.92,0001.05,0000.64,0000.61,0000.06,-000.11,0000.02,0000.14,0000.02,19.0,25.5,00.6,00.4,0657.8,31.1
2021-09-14T19:44:00Z,00000200,01000000,0001.33,0001.17,0000.31,-000.35,0000.17,0000.25,0000.01,0000.38,0000.01,19.1,25.5,00.6,00.4,0657.8,31.1
2021-09-14T19:45:00Z,00000200,01000000,0001.46,0000.86,0000.34,0000.19,0000.08,0000.26,0000.46,0000.26,0000.03,19.1,25.6,00.6,00.4,0657.9,31.1
2021-09-14T19:46:00Z,00000200,01000000,0001.59,0000.81,0000.83,0000.05,0000.20,0000.72,-000.14,0000.22,0000.25,19.1,25.6,00.7,00.5,0657.9,31.1
2021-09-14T19:47:00Z,00000200,01000000,0001.01,0001.16,0000.57,0000.56,0000.01,-000.00,0000.43,0000.07,0000.24,19.1,25.6,00.6,00.4,0657.9,31.1
2021-09-14T19:48:00Z,00000200,01000000,0000.78,0000.82,0000.93,0000.35,0000.40,0000.36,0000.30,0000.35,0000.28,19.1,25.6,00.7,00.4,0657.9,31.1
2021-09-14T19:49:00Z,00000200,01000000,0001.14,0000.94,0000.65,-000.51,0000.16,0000.47,0000.11,0000.14,0000.09,19.1,25.5,00.8,00.5,0657.9,31.1
2021-09-14T19:50:00Z,00000200,01000000,0000.18,0001.07,0000.36,0000.10,0000.23,0000.12,0000.52,0000.28,0000.22,19.1,25.5,00.7,00.5,0657.9,31.1
2021-09-14T19:51:00Z,00000200,01000000,0000.95,0000.69,0000.36,0000.51,0000.02,0000.24,0000.19,-000.08,0000.21,19.0,25.5,00.7,00.5,0657.9,31.1
2021-09-14T19:52:00Z,00000200,01000000,0001.63,0001.11,0000.56,0000.25,0000.19,0000.29,0000.42,0000.25,0000.33,19.0,25.5,00.8,00.5,0657.9,31.1
2021-09-14T19:53:00Z,00000200,01000000,0000.70,0000.90,0000.45,-000.13,0000.58,-000.05,0000.21,0000.39,-000.02,19.0,25.5,00.7,00.5,0657.9,31.1
2021-09-14T19:54:00Z,00000200,01000000,0001.80,0001.02,0000.60,-000.16,-000.07,0000.21,0000.09,0000.37,0000.27,19.0,25.5,00.7,00.5,0657.9,31.1
2021-09-14T19:55:00Z,00000200,01000000,0001.32,0000.89,0000.70,0000.16,0000.21,0000.37,0000.18,0000.20,0000.35,19.0,25.5,00.7,00.5,0657.9,31.1
2021-09-14T19:56:00Z,00000200,01000000,0001.66,0000.87,0000.49,0000.54,0000.26,0000.01,0000.62,0000.34,0000.42,19.0,25.5,00.8,00.5,0657.9,31.1
2021-09-14T19:57:00Z,00000200,41000000,,,,,,,0000.97,0000.87,0000.54,19.1,25.6,00.6,00.4,0658.1,31.1
2021-09-14T19:58:00Z,00000200,61000000,,,,,,,-000.35,-000.27,-000.26,18.9,25.7,00.9,00.6,0657.0,31.1
2021-09-14T19:59:00Z,00000200,21000000,,,,,,,-000.16,0000.12,0000.00,18.9,25.8,00.6,00.4,0656.9,31.1
